owner,sensor,date,latitude,longitude,vertical_datum,wind_speed,wind_to_direction,wind_speed_of_gust,qcFlag 
DISL,ioos:station:DISL:PPTA:1,2017-10-01T00:00:00Z,30.2791,-87.5561,0.0,2.4,80.8,-999.0,'1111122,1111122,1111122' 
DISL,ioos:station:DISL:PPTA:1,2017-10-01T00:30:00Z,30.2791,-87.5561,0.0,3.04,89.3,-999.0,'1111122,1111122,1111122' 
DISL,ioos:station:DISL:PPTA:1,2017-10-01T01:00:00Z,30.2791,-87.5561,0.0,5.96,87.5,-999.0,'1111122,1111122,1111122' 
DISL,ioos:station:DISL:PPTA:1,2017-10-01T01:30:00Z,30.2791,-87.5561,0.0,5.31,68.74,-999.0,'1111122,1111122,1111122' 
DISL,ioos:station:DISL:PPTA:1,2017-10-01T02:00:00Z,30.2791,-87.5561,0.0,2.53,354.6,-999.0,'1111122,1111122,1111122' 
DISL,ioos:station:DISL:PPTA:1,2017-10-01T02:30:00Z,30.2791,-87.5561,0.0,1.95,15.26,-999.0,'1111122,1111122,1111122' 
DISL,ioos:station:DISL:PPTA:1,2017-10-01T03:00:00Z,30.2791,-87.5561,0.0,2.92,28.62,-999.0,'1111122,1111122,1111122' 
DISL,ioos:station:DISL:PPTA:1,2017-10-01T03:30:00Z,30.2791,-87.5561,0.0,3.34,52.07,-999.0,'1111122,1111122,1111122' 
DISL,ioos:station:DISL:PPTA:1,2017-10-01T04:00:00Z,30.2791,-87.5561,0.0,4.6,53.34,-999.0,'1111122,1111122,1111122' 
DISL,ioos:station:DISL:PPTA:1,2017-10-01T04:30:00Z,30.2791,-87.5561,0.0,3.62,45.48,-999.0,'1111122,1111122,1111122' 
DISL,ioos:station:DISL:PPTA:1,2017-10-01T05:00:00Z,30.2791,-87.5561,0.0,3.53,39.06,-999.0,'1111122,1111122,1111122' 
DISL,ioos:station:DISL:PPTA:1,2017-10-01T05:30:00Z,30.2791,-87.5561,0.0,5.62,69.24,-999.0,'1111122,1111122,1111122' 
DISL,ioos:station:DISL:PPTA:1,2017-10-01T06:00:00Z,30.2791,-87.5561,0.0,8.47,117.3,-999.0,'1111122,1111122,1111122' 
DISL,ioos:station:DISL:PPTA:1,2017-10-01T06:30:00Z,30.2791,-87.5561,0.0,6.56,114.7,-999.0,'1111122,1111122,1111122' 
DISL,ioos:station:DISL:PPTA:1,2017-10-01T07:00:00Z,30.2791,-87.5561,0.0,5.36,109.6,-999.0,'1111122,1111122,1111122' 
DISL,ioos:station:DISL:PPTA:1,2017-10-01T07:30:00Z,30.2791,-87.5561,0.0,5.76,121.6,-999.0,'1111122,1111122,1111122' 
DISL,ioos:station:DISL:PPTA:1,2017-10-01T08:00:00Z,30.2791,-87.5561,0.0,4.32,65.45,-999.0,'1111122,1111122,1111122' 
DISL,ioos:station:DISL:PPTA:1,2017-10-01T08:30:00Z,30.2791,-87.5561,0.0,6.72,71.78,-999.0,'1111122,1111122,1111122' 
DISL,ioos:station:DISL:PPTA:1,2017-10-01T09:00:00Z,30.2791,-87.5561,0.0,5.08,50.65,-999.0,'1111122,1111122,1111122' 
DISL,ioos:station:DISL:PPTA:1,2017-10-01T09:30:00Z,30.2791,-87.5561,0.0,6.96,64.81,-999.0,'1111122,1111122,1111122' 
DISL,ioos:station:DISL:PPTA:1,2017-10-01T10:00:00Z,30.2791,-87.5561,0.0,7.38,67.03,-999.0,'1111122,1111122,1111122' 
DISL,ioos:station:DISL:PPTA:1,2017-10-01T10:30:00Z,30.2791,-87.5561,0.0,7.83,73.37,-999.0,'1111122,1111122,1111122' 
DISL,ioos:station:DISL:PPTA:1,2017-10-01T11:00:00Z,30.2791,-87.5561,0.0,7.5,64.37,-999.0,'1111122,1111122,1111122' 
DISL,ioos:station:DISL:PPTA:1,2017-10-01T11:30:00Z,30.2791,-87.5561,0.0,7.21,65.85,-999.0,'1111122,1111122,1111122' 
DISL,ioos:station:DISL:PPTA:1,2017-10-01T12:00:00Z,30.2791,-87.5561,0.0,7.33,79.53,-999.0,'1111122,1111122,1111122' 
DISL,ioos:station:DISL:PPTA:1,2017-10-01T12:30:00Z,30.2791,-87.5561,0.0,8.5,72.46,-999.0,'1111122,1111122,1111122' 
DISL,ioos:station:DISL:PPTA:1,2017-10-01T13:00:00Z,30.2791,-87.5561,0.0,7.36,65.67,-999.0,'1111122,1111122,1111122' 
DISL,ioos:station:DISL:PPTA:1,2017-10-01T13:30:00Z,30.2791,-87.5561,0.0,7.49,69.45,-999.0,'1111122,1111122,1111122' 
DISL,ioos:station:DISL:PPTA:1,2017-10-01T14:00:00Z,30.2791,-87.5561,0.0,7.39,66.89,-999.0,'1111122,1111122,1111122' 
DISL,ioos:station:DISL:PPTA:1,2017-10-01T14:30:00Z,30.2791,-87.5561,0.0,7.93,73.99,-999.0,'1111122,1111122,1111122' 
DISL,ioos:station:DISL:PPTA:1,2017-10-01T15:00:00Z,30.2791,-87.5561,0.0,7.79,74.46,-999.0,'1111122,1111122,1111122' 
DISL,ioos:station:DISL:PPTA:1,2017-10-01T15:30:00Z,30.2791,-87.5561,0.0,8.45,79.7,-999.0,'1111122,1111122,1111122' 
DISL,ioos:station:DISL:PPTA:1,2017-10-01T16:00:00Z,30.2791,-87.5561,0.0,8.31,86.0,-999.0,'1111122,1111122,1111122' 
DISL,ioos:station:DISL:PPTA:1,2017-10-01T16:30:00Z,30.2791,-87.5561,0.0,7.1,80.4,-999.0,'1111122,1111122,1111122' 
DISL,ioos:station:DISL:PPTA:1,2017-10-01T17:00:00Z,30.2791,-87.5561,0.0,7.8,84.2,-999.0,'1111122,1111122,1111122' 
DISL,ioos:station:DISL:PPTA:1,2017-10-01T17:30:00Z,30.2791,-87.5561,0.0,7.72,81.6,-999.0,'1111122,1111122,1111122' 
DISL,ioos:station:DISL:PPTA:1,2017-10-01T18:00:00Z,30.2791,-87.5561,0.0,6.99,83.2,-999.0,'1111122,1111122,1111122' 
DISL,ioos:station:DISL:PPTA:1,2017-10-01T18:30:00Z,30.2791,-87.5561,0.0,8.02,84.9,-999.0,'1111122,1111122,1111122' 
DISL,ioos:station:DISL:PPTA:1,2017-10-01T19:00:00Z,30.2791,-87.5561,0.0,8.32,79.66,-999.0,'1111122,1111122,1111122' 
DISL,ioos:station:DISL:PPTA:1,2017-10-01T19:30:00Z,30.2791,-87.5561,0.0,10.61,73.65,-999.0,'1111122,1111122,1111122' 
DISL,ioos:station:DISL:PPTA:1,2017-10-01T20:00:00Z,30.2791,-87.5561,0.0,7.36,59.62,-999.0,'1111122,1111122,1111122' 
DISL,ioos:station:DISL:PPTA:1,2017-10-01T20:30:00Z,30.2791,-87.5561,0.0,9.73,75.01,-999.0,'1111122,1111122,1111122' 
DISL,ioos:station:DISL:PPTA:1,2017-10-01T21:00:00Z,30.2791,-87.5561,0.0,8.86,74.14,-999.0,'1111122,1111122,1111122' 
DISL,ioos:station:DISL:PPTA:1,2017-10-01T21:30:00Z,30.2791,-87.5561,0.0,9.38,72.65,-999.0,'1111122,1111122,1111122' 
DISL,ioos:station:DISL:PPTA:1,2017-10-01T22:00:00Z,30.2791,-87.5561,0.0,9.24,78.66,-999.0,'1111122,1111122,1111122' 
DISL,ioos:station:DISL:PPTA:1,2017-10-01T22:30:00Z,30.2791,-87.5561,0.0,9.4,75.59,-999.0,'1111122,1111122,1111122' 
DISL,ioos:station:DISL:PPTA:1,2017-10-01T23:00:00Z,30.2791,-87.5561,0.0,9.44,60.73,-999.0,'1111122,1111122,1111122' 
DISL,ioos:station:DISL:PPTA:1,2017-10-01T23:30:00Z,30.2791,-87.5561,0.0,9.51,61.63,-999.0,'1111122,1111122,1111122' 
DISL,ioos:station:DISL:PPTA:1,2017-10-02T00:00:00Z,30.2791,-87.5561,0.0,9.56,57.93,-999.0,'1111122,1111122,1111122' 
DISL,ioos:station:DISL:PPTA:1,2017-10-02T00:30:00Z,30.2791,-87.5561,0.0,8.71,58.01,-999.0,'1111122,1111122,1111122' 
DISL,ioos:station:DISL:PPTA:1,2017-10-02T01:00:00Z,30.2791,-87.5561,0.0,8.71,61.63,-999.0,'1111122,1111122,1111122' 
DISL,ioos:station:DISL:PPTA:1,2017-10-02T01:30:00Z,30.2791,-87.5561,0.0,9.14,56.75,-999.0,'1111122,1111122,1111122' 
DISL,ioos:station:DISL:PPTA:1,2017-10-02T02:00:00Z,30.2791,-87.5561,0.0,8.78,59.86,-999.0,'1111122,1111122,1111122' 
DISL,ioos:station:DISL:PPTA:1,2017-10-02T02:30:00Z,30.2791,-87.5561,0.0,8.89,63.65,-999.0,'1111122,1111122,1111122' 
DISL,ioos:station:DISL:PPTA:1,2017-10-02T03:00:00Z,30.2791,-87.5561,0.0,9.56,64.85,-999.0,'1111122,1111122,1111122' 
DISL,ioos:station:DISL:PPTA:1,2017-10-02T03:30:00Z,30.2791,-87.5561,0.0,8.64,62.33,-999.0,'1111122,1111122,1111122' 
DISL,ioos:station:DISL:PPTA:1,2017-10-02T04:00:00Z,30.2791,-87.5561,0.0,8.74,73.12,-999.0,'1111122,1111122,1111122' 
DISL,ioos:station:DISL:PPTA:1,2017-10-02T04:30:00Z,30.2791,-87.5561,0.0,8.57,67.91,-999.0,'1111122,1111122,1111122' 
DISL,ioos:station:DISL:PPTA:1,2017-10-02T05:00:00Z,30.2791,-87.5561,0.0,8.62,68.3,-999.0,'1111122,1111122,1111122' 
DISL,ioos:station:DISL:PPTA:1,2017-10-02T05:30:00Z,30.2791,-87.5561,0.0,8.6,74.79,-999.0,'1111122,1111122,1111122' 
DISL,ioos:station:DISL:PPTA:1,2017-10-02T06:00:00Z,30.2791,-87.5561,0.0,8.32,78.14,-999.0,'1111122,1111122,1111122' 
DISL,ioos:station:DISL:PPTA:1,2017-10-02T06:30:00Z,30.2791,-87.5561,0.0,8.03,75.44,-999.0,'1111122,1111122,1111122' 
DISL,ioos:station:DISL:PPTA:1,2017-10-02T07:00:00Z,30.2791,-87.5561,0.0,8.4,81.0,-999.0,'1111122,1111122,1111122' 
DISL,ioos:station:DISL:PPTA:1,2017-10-02T07:30:00Z,30.2791,-87.5561,0.0,10.82,84.7,-999.0,'1111122,1111122,1111122' 
DISL,ioos:station:DISL:PPTA:1,2017-10-02T08:00:00Z,30.2791,-87.5561,0.0,10.48,86.5,-999.0,'1111122,1111122,1111122' 
DISL,ioos:station:DISL:PPTA:1,2017-10-02T08:30:00Z,30.2791,-87.5561,0.0,10.22,86.5,-999.0,'1111122,1111122,1111122' 
DISL,ioos:station:DISL:PPTA:1,2017-10-02T09:00:00Z,30.2791,-87.5561,0.0,9.55,86.8,-999.0,'1111122,1111122,1111122' 
DISL,ioos:station:DISL:PPTA:1,2017-10-02T09:30:00Z,30.2791,-87.5561,0.0,9.81,87.1,-999.0,'1111122,1111122,1111122' 
DISL,ioos:station:DISL:PPTA:1,2017-10-02T10:00:00Z,30.2791,-87.5561,0.0,9.19,86.7,-999.0,'1111122,1111122,1111122' 
DISL,ioos:station:DISL:PPTA:1,2017-10-02T10:30:00Z,30.2791,-87.5561,0.0,9.92,86.4,-999.0,'1111122,1111122,1111122' 
DISL,ioos:station:DISL:PPTA:1,2017-10-02T11:00:00Z,30.2791,-87.5561,0.0,9.04,85.3,-999.0,'1111122,1111122,1111122' 
DISL,ioos:station:DISL:PPTA:1,2017-10-02T11:30:00Z,30.2791,-87.5561,0.0,8.35,75.94,-999.0,'1111122,1111122,1111122' 
DISL,ioos:station:DISL:PPTA:1,2017-10-02T12:00:00Z,30.2791,-87.5561,0.0,8.11,70.53,-999.0,'1111122,1111122,1111122' 
DISL,ioos:station:DISL:PPTA:1,2017-10-02T12:30:00Z,30.2791,-87.5561,0.0,8.82,70.37,-999.0,'1111122,1111122,1111122' 
DISL,ioos:station:DISL:PPTA:1,2017-10-02T13:00:00Z,30.2791,-87.5561,0.0,8.37,75.59,-999.0,'1111122,1111122,1111122' 
DISL,ioos:station:DISL:PPTA:1,2017-10-02T13:30:00Z,30.2791,-87.5561,0.0,8.41,79.94,-999.0,'1111122,1111122,1111122' 
DISL,ioos:station:DISL:PPTA:1,2017-10-02T14:00:00Z,30.2791,-87.5561,0.0,8.13,77.15,-999.0,'1111122,1111122,1111122' 
DISL,ioos:station:DISL:PPTA:1,2017-10-02T14:30:00Z,30.2791,-87.5561,0.0,8.14,81.3,-999.0,'1111122,1111122,1111122' 
DISL,ioos:station:DISL:PPTA:1,2017-10-02T15:00:00Z,30.2791,-87.5561,0.0,9.41,86.0,-999.0,'1111122,1111122,1111122' 
DISL,ioos:station:DISL:PPTA:1,2017-10-02T15:30:00Z,30.2791,-87.5561,0.0,10.32,85.6,-999.0,'1111122,1111122,1111122' 
DISL,ioos:station:DISL:PPTA:1,2017-10-02T16:00:00Z,30.2791,-87.5561,0.0,9.91,86.2,-999.0,'1111122,1111122,1111122' 
DISL,ioos:station:DISL:PPTA:1,2017-10-02T16:30:00Z,30.2791,-87.5561,0.0,11.95,85.3,-999.0,'1111122,1111122,1111122' 
DISL,ioos:station:DISL:PPTA:1,2017-10-02T17:00:00Z,30.2791,-87.5561,0.0,9.47,85.2,-999.0,'1111122,1111122,1111122' 
DISL,ioos:station:DISL:PPTA:1,2017-10-02T17:30:00Z,30.2791,-87.5561,0.0,10.05,85.2,-999.0,'1111122,1111122,1111122' 
DISL,ioos:station:DISL:PPTA:1,2017-10-02T18:00:00Z,30.2791,-87.5561,0.0,9.38,87.3,-999.0,'1111122,1111122,1111122' 
DISL,ioos:station:DISL:PPTA:1,2017-10-02T18:30:00Z,30.2791,-87.5561,0.0,8.67,89.3,-999.0,'1111122,1111122,1111122' 
DISL,ioos:station:DISL:PPTA:1,2017-10-02T19:00:00Z,30.2791,-87.5561,0.0,8.06,91.8,-999.0,'1111122,1111122,1111122' 
DISL,ioos:station:DISL:PPTA:1,2017-10-02T19:30:00Z,30.2791,-87.5561,0.0,10.06,85.6,-999.0,'1111122,1111122,1111122' 
DISL,ioos:station:DISL:PPTA:1,2017-10-02T20:00:00Z,30.2791,-87.5561,0.0,9.32,87.8,-999.0,'1111122,1111122,1111122' 
DISL,ioos:station:DISL:PPTA:1,2017-10-02T20:30:00Z,30.2791,-87.5561,0.0,9.37,84.6,-999.0,'1111122,1111122,1111122' 
DISL,ioos:station:DISL:PPTA:1,2017-10-02T21:00:00Z,30.2791,-87.5561,0.0,9.01,85.7,-999.0,'1111122,1111122,1111122' 
DISL,ioos:station:DISL:PPTA:1,2017-10-02T21:30:00Z,30.2791,-87.5561,0.0,7.92,87.7,-999.0,'1111122,1111122,1111122' 
DISL,ioos:station:DISL:PPTA:1,2017-10-02T22:00:00Z,30.2791,-87.5561,0.0,7.38,90.8,-999.0,'1111122,1111122,1111122' 
DISL,ioos:station:DISL:PPTA:1,2017-10-02T22:30:00Z,30.2791,-87.5561,0.0,8.04,90.8,-999.0,'1111122,1111122,1111122' 
DISL,ioos:station:DISL:PPTA:1,2017-10-02T23:00:00Z,30.2791,-87.5561,0.0,6.82,98.1,-999.0,'1111122,1111122,1111122' 
DISL,ioos:station:DISL:PPTA:1,2017-10-02T23:30:00Z,30.2791,-87.5561,0.0,7.58,87.5,-999.0,'1111122,1111122,1111122' 
DISL,ioos:station:DISL:PPTA:1,2017-10-03T00:00:00Z,30.2791,-87.5561,0.0,7.63,87.3,-999.0,'1111122,1111122,1111122' 
DISL,ioos:station:DISL:PPTA:1,2017-10-03T00:30:00Z,30.2791,-87.5561,0.0,8.23,85.7,-999.0,'1111122,1111122,1111122' 
DISL,ioos:station:DISL:PPTA:1,2017-10-03T01:00:00Z,30.2791,-87.5561,0.0,7.27,72.1,-999.0,'1111122,1111122,1111122' 
DISL,ioos:station:DISL:PPTA:1,2017-10-03T01:30:00Z,30.2791,-87.5561,0.0,6.82,72.5,-999.0,'1111122,1111122,1111122' 
DISL,ioos:station:DISL:PPTA:1,2017-10-03T02:00:00Z,30.2791,-87.5561,0.0,5.86,80.0,-999.0,'1111122,1111122,1111122' 
DISL,ioos:station:DISL:PPTA:1,2017-10-03T02:30:00Z,30.2791,-87.5561,0.0,6.49,79.37,-999.0,'1111122,1111122,1111122' 
DISL,ioos:station:DISL:PPTA:1,2017-10-03T03:00:00Z,30.2791,-87.5561,0.0,6.06,73.93,-999.0,'1111122,1111122,1111122' 
DISL,ioos:station:DISL:PPTA:1,2017-10-03T03:30:00Z,30.2791,-87.5561,0.0,6.05,66.8,-999.0,'1111122,1111122,1111122' 
DISL,ioos:station:DISL:PPTA:1,2017-10-03T04:00:00Z,30.2791,-87.5561,0.0,6.42,75.49,-999.0,'1111122,1111122,1111122' 
DISL,ioos:station:DISL:PPTA:1,2017-10-03T04:30:00Z,30.2791,-87.5561,0.0,5.85,78.01,-999.0,'1111122,1111122,1111122' 
DISL,ioos:station:DISL:PPTA:1,2017-10-03T05:00:00Z,30.2791,-87.5561,0.0,6.22,77.5,-999.0,'1111122,1111122,1111122' 
DISL,ioos:station:DISL:PPTA:1,2017-10-03T05:30:00Z,30.2791,-87.5561,0.0,6.03,77.01,-999.0,'1111122,1111122,1111122' 
DISL,ioos:station:DISL:PPTA:1,2017-10-03T06:00:00Z,30.2791,-87.5561,0.0,6.2,77.61,-999.0,'1111122,1111122,1111122' 
DISL,ioos:station:DISL:PPTA:1,2017-10-03T06:30:00Z,30.2791,-87.5561,0.0,5.94,76.23,-999.0,'1111122,1111122,1111122' 
DISL,ioos:station:DISL:PPTA:1,2017-10-03T07:00:00Z,30.2791,-87.5561,0.0,9.03,85.9,-999.0,'1111122,1111122,1111122' 
DISL,ioos:station:DISL:PPTA:1,2017-10-03T07:30:00Z,30.2791,-87.5561,0.0,8.18,93.0,-999.0,'1111122,1111122,1111122' 
DISL,ioos:station:DISL:PPTA:1,2017-10-03T08:00:00Z,30.2791,-87.5561,0.0,9.47,87.4,-999.0,'1111122,1111122,1111122' 
DISL,ioos:station:DISL:PPTA:1,2017-10-03T08:30:00Z,30.2791,-87.5561,0.0,8.65,97.7,-999.0,'1111122,1111122,1111122' 
DISL,ioos:station:DISL:PPTA:1,2017-10-03T09:00:00Z,30.2791,-87.5561,0.0,9.7,88.0,-999.0,'1111122,1111122,1111122' 
DISL,ioos:station:DISL:PPTA:1,2017-10-03T09:30:00Z,30.2791,-87.5561,0.0,9.91,85.2,-999.0,'1111122,1111122,1111122' 
DISL,ioos:station:DISL:PPTA:1,2017-10-03T10:00:00Z,30.2791,-87.5561,0.0,10.25,85.6,-999.0,'1111122,1111122,1111122' 
DISL,ioos:station:DISL:PPTA:1,2017-10-03T10:30:00Z,30.2791,-87.5561,0.0,8.43,87.0,-999.0,'1111122,1111122,1111122' 
DISL,ioos:station:DISL:PPTA:1,2017-10-03T11:00:00Z,30.2791,-87.5561,0.0,6.67,78.36,-999.0,'1111122,1111122,1111122' 
DISL,ioos:station:DISL:PPTA:1,2017-10-03T11:30:00Z,30.2791,-87.5561,0.0,6.27,78.33,-999.0,'1111122,1111122,1111122' 
DISL,ioos:station:DISL:PPTA:1,2017-10-03T12:00:00Z,30.2791,-87.5561,0.0,6.83,75.98,-999.0,'1111122,1111122,1111122' 
DISL,ioos:station:DISL:PPTA:1,2017-10-03T12:30:00Z,30.2791,-87.5561,0.0,7.73,75.81,-999.0,'1111122,1111122,1111122' 
DISL,ioos:station:DISL:PPTA:1,2017-10-03T13:00:00Z,30.2791,-87.5561,0.0,7.34,75.79,-999.0,'1111122,1111122,1111122' 
DISL,ioos:station:DISL:PPTA:1,2017-10-03T13:30:00Z,30.2791,-87.5561,0.0,7.05,78.12,-999.0,'1111122,1111122,1111122' 
DISL,ioos:station:DISL:PPTA:1,2017-10-03T14:00:00Z,30.2791,-87.5561,0.0,7.69,78.57,-999.0,'1111122,1111122,1111122' 
DISL,ioos:station:DISL:PPTA:1,2017-10-03T14:30:00Z,30.2791,-87.5561,0.0,8.24,85.0,-999.0,'1111122,1111122,1111122' 
DISL,ioos:station:DISL:PPTA:1,2017-10-03T15:00:00Z,30.2791,-87.5561,0.0,9.63,82.5,-999.0,'1111122,1111122,1111122' 
DISL,ioos:station:DISL:PPTA:1,2017-10-03T15:30:00Z,30.2791,-87.5561,0.0,9.92,85.8,-999.0,'1111122,1111122,1111122' 
DISL,ioos:station:DISL:PPTA:1,2017-10-03T16:00:00Z,30.2791,-87.5561,0.0,9.14,84.1,-999.0,'1111122,1111122,1111122' 
DISL,ioos:station:DISL:PPTA:1,2017-10-03T16:30:00Z,30.2791,-87.5561,0.0,9.34,83.7,-999.0,'1111122,1111122,1111122' 
DISL,ioos:station:DISL:PPTA:1,2017-10-03T17:00:00Z,30.2791,-87.5561,0.0,9.32,86.6,-999.0,'1111122,1111122,1111122' 
DISL,ioos:station:DISL:PPTA:1,2017-10-03T17:30:00Z,30.2791,-87.5561,0.0,9.73,87.8,-999.0,'1111122,1111122,1111122' 
DISL,ioos:station:DISL:PPTA:1,2017-10-03T18:00:00Z,30.2791,-87.5561,0.0,9.49,84.6,-999.0,'1111122,1111122,1111122' 
DISL,ioos:station:DISL:PPTA:1,2017-10-03T18:30:00Z,30.2791,-87.5561,0.0,6.82,91.3,-999.0,'1111122,1111122,1111122' 
DISL,ioos:station:DISL:PPTA:1,2017-10-03T19:00:00Z,30.2791,-87.5561,0.0,6.06,97.7,-999.0,'1111122,1111122,1111122' 
DISL,ioos:station:DISL:PPTA:1,2017-10-03T19:30:00Z,30.2791,-87.5561,0.0,5.84,103.2,-999.0,'1111122,1111122,1111122' 
DISL,ioos:station:DISL:PPTA:1,2017-10-03T20:00:00Z,30.2791,-87.5561,0.0,5.97,102.5,-999.0,'1111122,1111122,1111122' 
DISL,ioos:station:DISL:PPTA:1,2017-10-03T20:30:00Z,30.2791,-87.5561,0.0,5.32,103.0,-999.0,'1111122,1111122,1111122' 
DISL,ioos:station:DISL:PPTA:1,2017-10-03T21:00:00Z,30.2791,-87.5561,0.0,4.88,104.0,-999.0,'1111122,1111122,1111122' 
DISL,ioos:station:DISL:PPTA:1,2017-10-03T21:30:00Z,30.2791,-87.5561,0.0,4.73,110.6,-999.0,'1111122,1111122,1111122' 
DISL,ioos:station:DISL:PPTA:1,2017-10-03T22:00:00Z,30.2791,-87.5561,0.0,5.4,115.0,99.0,'11111222,11111222,11144222' 
DISL,ioos:station:DISL:PPTA:1,2017-10-03T22:30:00Z,30.2791,-87.5561,0.0,4.25,108.3,-9999.0,'1111122,1111122,1111122' 
DISL,ioos:station:DISL:PPTA:1,2017-10-03T23:00:00Z,30.2791,-87.5561,0.0,5.6,88.0,99.0,'11111222,11111222,11144222' 
DISL,ioos:station:DISL:PPTA:1,2017-10-03T23:30:00Z,30.2791,-87.5561,0.0,4.42,79.58,-9999.0,'1111122,1111122,1111122' 
DISL,ioos:station:DISL:PPTA:1,2017-10-04T00:00:00Z,30.2791,-87.5561,0.0,4.2,77.0,99.0,'11111222,11111222,11144222' 
DISL,ioos:station:DISL:PPTA:1,2017-10-04T00:30:00Z,30.2791,-87.5561,0.0,3.96,62.75,-9999.0,'1111122,1111122,1111122' 
DISL,ioos:station:DISL:PPTA:1,2017-10-04T01:00:00Z,30.2791,-87.5561,0.0,3.5,54.0,99.0,'11111222,11111222,11144222' 
DISL,ioos:station:DISL:PPTA:1,2017-10-04T01:30:00Z,30.2791,-87.5561,0.0,2.22,31.87,-9999.0,'1111122,1111122,1111122' 
DISL,ioos:station:DISL:PPTA:1,2017-10-04T02:00:00Z,30.2791,-87.5561,0.0,3.0,23.0,99.0,'11111222,11111222,11144222' 
DISL,ioos:station:DISL:PPTA:1,2017-10-04T02:30:00Z,30.2791,-87.5561,0.0,3.27,34.8,-9999.0,'1111122,1111122,1111122' 
DISL,ioos:station:DISL:PPTA:1,2017-10-04T03:00:00Z,30.2791,-87.5561,0.0,4.0,42.0,99.0,'11111222,11111222,11144222' 
DISL,ioos:station:DISL:PPTA:1,2017-10-04T03:30:00Z,30.2791,-87.5561,0.0,4.7,52.16,-9999.0,'1111122,1111122,1111122' 
DISL,ioos:station:DISL:PPTA:1,2017-10-04T04:00:00Z,30.2791,-87.5561,0.0,5.3,57.0,99.0,'11111222,11111222,11144222' 
DISL,ioos:station:DISL:PPTA:1,2017-10-04T04:30:00Z,30.2791,-87.5561,0.0,6.87,70.86,-9999.0,'1111122,1111122,1111122' 
DISL,ioos:station:DISL:PPTA:1,2017-10-04T05:00:00Z,30.2791,-87.5561,0.0,6.1,75.0,99.0,'11111222,11111222,11144222' 
DISL,ioos:station:DISL:PPTA:1,2017-10-04T05:30:00Z,30.2791,-87.5561,0.0,6.95,77.99,-9999.0,'1111122,1111122,1111122' 
DISL,ioos:station:DISL:PPTA:1,2017-10-04T06:00:00Z,30.2791,-87.5561,0.0,8.2,78.0,99.0,'11111222,11111222,11144222' 
DISL,ioos:station:DISL:PPTA:1,2017-10-04T06:30:00Z,30.2791,-87.5561,0.0,6.77,77.49,-9999.0,'1111122,1111122,1111122' 
DISL,ioos:station:DISL:PPTA:1,2017-10-04T07:00:00Z,30.2791,-87.5561,0.0,8.0,73.0,99.0,'11111222,11111222,11144222' 
DISL,ioos:station:DISL:PPTA:1,2017-10-04T07:30:00Z,30.2791,-87.5561,0.0,7.19,73.95,-9999.0,'1111122,1111122,1111122' 
DISL,ioos:station:DISL:PPTA:1,2017-10-04T08:00:00Z,30.2791,-87.5561,0.0,7.2,74.0,99.0,'11111222,11111222,11144222' 
DISL,ioos:station:DISL:PPTA:1,2017-10-04T08:30:00Z,30.2791,-87.5561,0.0,6.37,64.03,-9999.0,'1111122,1111122,1111122' 
DISL,ioos:station:DISL:PPTA:1,2017-10-04T09:00:00Z,30.2791,-87.5561,0.0,6.1,58.0,99.0,'11111222,11111222,11144222' 
DISL,ioos:station:DISL:PPTA:1,2017-10-04T09:30:00Z,30.2791,-87.5561,0.0,6.64,56.29,-9999.0,'1111122,1111122,1111122' 
DISL,ioos:station:DISL:PPTA:1,2017-10-04T10:00:00Z,30.2791,-87.5561,0.0,7.4,59.0,99.0,'11111222,11111222,11144222' 
DISL,ioos:station:DISL:PPTA:1,2017-10-04T10:30:00Z,30.2791,-87.5561,0.0,8.1,63.0,99.0,'11111222,11111222,11144222' 
DISL,ioos:station:DISL:PPTA:1,2017-10-04T11:00:00Z,30.2791,-87.5561,0.0,7.4,64.16,-9999.0,'1111122,1111122,1111122' 
DISL,ioos:station:DISL:PPTA:1,2017-10-04T11:30:00Z,30.2791,-87.5561,0.0,7.7,65.0,99.0,'11111222,11111222,11144222' 
DISL,ioos:station:DISL:PPTA:1,2017-10-04T12:00:00Z,30.2791,-87.5561,0.0,7.8,67.0,99.0,'11111222,11111222,11144222' 
DISL,ioos:station:DISL:PPTA:1,2017-10-04T12:30:00Z,30.2791,-87.5561,0.0,7.19,66.68,-9999.0,'1111122,1111122,1111122' 
DISL,ioos:station:DISL:PPTA:1,2017-10-04T13:00:00Z,30.2791,-87.5561,0.0,7.3,71.0,99.0,'11111222,11111222,11144222' 
DISL,ioos:station:DISL:PPTA:1,2017-10-04T13:30:00Z,30.2791,-87.5561,0.0,7.03,74.94,-9999.0,'1111122,1111122,1111122' 
DISL,ioos:station:DISL:PPTA:1,2017-10-04T14:00:00Z,30.2791,-87.5561,0.0,6.9,77.0,99.0,'11111222,11111222,11144222' 
DISL,ioos:station:DISL:PPTA:1,2017-10-04T14:30:00Z,30.2791,-87.5561,0.0,6.94,82.3,-9999.0,'1111122,1111122,1111122' 
DISL,ioos:station:DISL:PPTA:1,2017-10-04T15:00:00Z,30.2791,-87.5561,0.0,6.3,81.0,99.0,'11111222,11111222,11144222' 
DISL,ioos:station:DISL:PPTA:1,2017-10-04T15:30:00Z,30.2791,-87.5561,0.0,6.99,86.4,-9999.0,'1111122,1111122,1111122' 
DISL,ioos:station:DISL:PPTA:1,2017-10-04T16:00:00Z,30.2791,-87.5561,0.0,7.5,87.0,99.0,'11111222,11111222,11144222' 
DISL,ioos:station:DISL:PPTA:1,2017-10-04T16:30:00Z,30.2791,-87.5561,0.0,7.47,85.7,-9999.0,'1111122,1111122,1111122' 
DISL,ioos:station:DISL:PPTA:1,2017-10-04T17:00:00Z,30.2791,-87.5561,0.0,7.7,88.0,99.0,'11111222,11111222,11144222' 
DISL,ioos:station:DISL:PPTA:1,2017-10-04T17:30:00Z,30.2791,-87.5561,0.0,7.14,85.4,-9999.0,'1111122,1111122,1111122' 
DISL,ioos:station:DISL:PPTA:1,2017-10-04T18:00:00Z,30.2791,-87.5561,0.0,7.2,84.0,99.0,'11111222,11111222,11144222' 
DISL,ioos:station:DISL:PPTA:1,2017-10-04T18:30:00Z,30.2791,-87.5561,0.0,7.35,86.3,-9999.0,'1111122,1111122,1111122' 
DISL,ioos:station:DISL:PPTA:1,2017-10-04T19:00:00Z,30.2791,-87.5561,0.0,5.5,90.0,99.0,'11111222,11111222,11144222' 
DISL,ioos:station:DISL:PPTA:1,2017-10-04T19:30:00Z,30.2791,-87.5561,0.0,6.09,86.9,-9999.0,'1111122,1111122,1111122' 
DISL,ioos:station:DISL:PPTA:1,2017-10-04T20:00:00Z,30.2791,-87.5561,0.0,5.8,89.0,99.0,'11111222,11111222,11144222' 
DISL,ioos:station:DISL:PPTA:1,2017-10-04T20:30:00Z,30.2791,-87.5561,0.0,3.72,113.1,-9999.0,'1111122,1111122,1111122' 
DISL,ioos:station:DISL:PPTA:1,2017-10-04T21:00:00Z,30.2791,-87.5561,0.0,4.1,118.0,99.0,'11111222,11111222,11144222' 
DISL,ioos:station:DISL:PPTA:1,2017-10-04T21:30:00Z,30.2791,-87.5561,0.0,3.5,113.5,-9999.0,'1111122,1111122,1111122' 
DISL,ioos:station:DISL:PPTA:1,2017-10-04T22:00:00Z,30.2791,-87.5561,0.0,3.8,107.0,99.0,'11111222,11111222,11144222' 
DISL,ioos:station:DISL:PPTA:1,2017-10-04T22:30:00Z,30.2791,-87.5561,0.0,3.05,105.6,-9999.0,'1111122,1111122,1111122' 
DISL,ioos:station:DISL:PPTA:1,2017-10-04T23:00:00Z,30.2791,-87.5561,0.0,3.2,97.0,99.0,'11111222,11111222,11144222' 
DISL,ioos:station:DISL:PPTA:1,2017-10-04T23:30:00Z,30.2791,-87.5561,0.0,3.25,85.7,-9999.0,'1111122,1111122,1111122' 
DISL,ioos:station:DISL:PPTA:1,2017-10-05T00:00:00Z,30.2791,-87.5561,0.0,2.2,65.0,99.0,'11111222,11111222,11144222' 
DISL,ioos:station:DISL:PPTA:1,2017-10-05T00:30:00Z,30.2791,-87.5561,0.0,2.14,44.89,-9999.0,'1111122,1111122,1111122' 
DISL,ioos:station:DISL:PPTA:1,2017-10-05T01:00:00Z,30.2791,-87.5561,0.0,1.8,3.0,99.0,'11111222,11111222,11144222' 
DISL,ioos:station:DISL:PPTA:1,2017-10-05T01:30:00Z,30.2791,-87.5561,0.0,2.84,24.67,-9999.0,'1111122,1111122,1111122' 
DISL,ioos:station:DISL:PPTA:1,2017-10-05T02:00:00Z,30.2791,-87.5561,0.0,3.1,30.0,99.0,'11111222,11111222,11144222' 
DISL,ioos:station:DISL:PPTA:1,2017-10-05T02:30:00Z,30.2791,-87.5561,0.0,3.24,25.23,-9999.0,'1111122,1111122,1111122' 
DISL,ioos:station:DISL:PPTA:1,2017-10-05T03:00:00Z,30.2791,-87.5561,0.0,3.5,37.0,99.0,'11111222,11111222,11144222' 
DISL,ioos:station:DISL:PPTA:1,2017-10-05T03:30:00Z,30.2791,-87.5561,0.0,3.79,37.04,-9999.0,'1111122,1111122,1111122' 
DISL,ioos:station:DISL:PPTA:1,2017-10-05T04:00:00Z,30.2791,-87.5561,0.0,3.9,39.0,99.0,'11111222,11111222,11144222' 
DISL,ioos:station:DISL:PPTA:1,2017-10-05T04:30:00Z,30.2791,-87.5561,0.0,4.71,46.86,-9999.0,'1111122,1111122,1111122' 
DISL,ioos:station:DISL:PPTA:1,2017-10-05T05:00:00Z,30.2791,-87.5561,0.0,5.0,60.0,99.0,'11111222,11111222,11144222' 
DISL,ioos:station:DISL:PPTA:1,2017-10-05T05:30:00Z,30.2791,-87.5561,0.0,5.01,59.71,-9999.0,'1111122,1111122,1111122' 